User: anonymous   Login
Location: Unspecified
(0.0000°N, 0.0000°E)
Time: 10:57:04
(UTC+02:00)
Language:

Cosmos 1072 Rocket - Orbit

View from above orbital plane
View from above orbital plane
View from above satellite
View from above satellite

Ground track
Ground track

The orbit data is extracted from the following two-line orbital elements,

1 11239U 79003B   17292.61573192 +.00000033 +00000-0 +18031-4 0  9993
2 11239 082.9410 356.2135 0041653 046.9156 106.0362 13.75816103944704
Epoch (UTC): 19 October 2017 14:46:39
Eccentricity: 0.0041653
inclination: 82.9410°
perigee height: 948 km
apogee height: 1009 km
right ascension of ascending node: 356.2135°
argument of perigee: 46.9156°
revolutions per day: 13.75816103
mean anomaly at epoch: 106.0362°
orbit number at epoch: 94470

The dashed part of the orbit path shows where the satellite is in the earth's shadow,  

DLR